Location: T�chigga el Be�da
(16.4766°N, 9.3887°W)
Time: 14:53:33
(UTC+00:00)

YAOGAN 1 - Pass Details

Date: 27 February 2020
Orbit: 618 x 621 km, 97.9° (Epoch: 04 April)

Event Time Altitude Azimuth Distance (km) Brightness Sun altitude
Rises 19:13:01 0° 159° (SSE) 2,883 5.8 -7.8°
Reaches altitude 10° 19:15:14 10° 154° (SSE) 1,979 5.0 -8.3°
Maximum altitude 19:19:25 54° 77° (ENE) 756 2.7 -9.3°
Drops below altitude 10° 19:23:38 10° 0° (N) 1,983 5.1 -10.3°
Sets 19:25:51 0° 356° (N) 2,889 6.0 -10.8°
